sat.trackr.live / text

‹ back to catalog

STARLINK-35623

NORAD 66138 · 2025-237AA

PAYLOAD ACTIVE UNKNOWN

§ Identity

Operator
Country
US
Launch date
2025-10-22
Launch site
AFWTR
Launch vehicle
Mass (kg)
RCS (m²)

Purposes: comms

External: N2YO · Heavens-Above · Gunter

§ Orbital elements

Epoch: 2026-05-25T00:31:03.051840Z

Period
94.10 min
Inclination
53.1579°
Eccentricity
0.0000792
Mean motion
15.30210053 rev/d
Perigee alt
474.6 km
Apogee alt
475.7 km
Semi-major
6,853.3 km
B*
3.9566e-4
RAAN
45.3164°
Arg perigee
69.9537°
Mean anomaly
290.1549°
Rev number
3,429

§ Raw data

STARLINK-356231 66138U 25237AA  26145.02156310  .00011381  00000+0  39566-3 0  99942 66138  53.1579  45.3164 0000792  69.9537 290.1549 15.30210053 34294

JSON: /api/v1/satellites/66138 · /tle

For live sub-satellite position, see the globe view (requires WebGL).

§ Visibility from observer

Set your observer location to see the next 7 days of passes ≥ 10°. The values pass through the URL so the page stays shareable.

No JS? Fill the form by hand. The geolocation button needs JavaScript.